"Pseudo-MPEC" for P10HIxG

Created 2018 Jun 18 9:18:14 UT using Find_Orb

Click here for an explanation of pseudo-MPECs

 
 Astrometry: 
     P10HIxG  C2018 06 04VIAstrometry7WQlAua1wSI\8o!^xBb.Il_3*X+:(vL3Bmc)$:7'F51
     P10HIxG  C2018 06 05v)PxhNtPOt8RAR?%0$?lTEvlCZJ]qR4T\fB1`L:5?l0qe5[i.NCTF52
     P10HIxG  C2018 06 05.sFQSqh$#Y_hUJO(d!VNru=SdK[aYC[NhQ=m.?mb[rkc\/dm76hTF52
     P10HIxG  C2018 06 05D-YYn9#)s+LJH?XBy%*ZwuxZ^'uSo)QVb0%!3.t?ZDASV=R6GggvF52
     P10HIxG  C2018 06 08e!Z'(/4x8eT!vYcBQ\VOXd,upvC]cse.*m=rE0^T1Z3gw/Z@H8*TF51
     P10HIxG  C2018 06 083*08m^:XlxLcqqs/K*C9L@DTBlFL4'*D?x\30N2\8].1F3piv/)@F51
     P10HIxG  C2018 06 08KgdRgx3LwR$Y?4.+qBYehl[WMWAVR_[?#g,2S,62Kt1vNTU:B!uTF51
     P10HIxG  C2018 06 08N-O^_4t$k;dGwg3(8redacted;an46HCPDE%RM2'fKo:OaUn.KE/F51
     P10HIxG ^C2018 06 10.41826417 26 24.328+28 16 59.01         20.77GVNEOCP568
     P10HIxG ^C2018 06 10.41943917 26 24.303+28 16 58.76         20.83GVNEOCP568
     P10HIxG ^C2018 06 10.42061617 26 24.279+28 16 58.52         20.75GVNEOCP568
     P10HIxG  C2018 06 11.18874 17 26 10.77 +28 13 47.8                UNEOCPI52
     P10HIxG  C2018 06 11.20609 17 26 10.49 +28 13 43.5                UNEOCPI52
     P10HIxG  C2018 06 11.21472 17 26 10.26 +28 13 41.4          21.3 GUNEOCPI52
     P10HIxG  C2018 06 11N2v0K7$9M]W%\]WcI_Ou.CJoyrXJ=ARP=cUTAn\HQ9'3v^wFwu`JV06
     P10HIxG  C2018 06 11EU#rgM5.Z?KwtZriptt/!b`:_`7?[QCZ-FRtNB].a._\BW%8RySaV06
     P10HIxG  C2018 06 11bm_t]6=qwdJLlF/T-q9CnJH`Hb0c$Wdp^=aU58s9de_M?Fy2jG78V06
     P10HIxG  C2018 06 11-9:p#$N5BU+ZLFia_cT#(m+:*4*QKv8?k.vo]1klq%=nZWh`\1bPV06
     P10HIxG KC2018 06 11oP4V08OU!KJ8]o^Ttqi6NF%.`;skhS%BciZ8E5cIM?e.mhZ\X.]7711
     P10HIxG KC2018 06 11pwRiC1-SpFgbEW%H^AJ45lHKJ0.b`:o`8Gn3=nU%92*Jd]tSrf!x711
     P10HIxG KC2018 06 1172`S8Fmb,_B-.0J?)p+h2U,oP_B;t-'Z`s'.5gGXuUByXa]NlK:G711
     P10HIxG KC2018 06 111cwK+nf%!G:@A$0bKh]'07_qtgcy[d0Dseeb[*0!ce#'wx+-aWOx711
     P10HIxG KC2018 06 118_5Q0/MbS7swS.[cdEO@V=!JMy:e8P94OggOt7^Uy3v!C9V9rfq3711
     P10HIxG  C2018 06 13.34916 17 25 30.76 +28 02 47.2          19.6 GUNEOCPI52
     P10HIxG HC2018 06 13Qd=mf0[fH];gW-Aob@\^AZRxsJJ:A]E+T9LeNhQw%G6T_,p%B/;R691
     P10HIxG HC2018 06 13Pe#j`:5Fo(r4W:?.?fL/te;kj8TD:owjZT4tHJ@=,l+c,Kq%kw5f691
     P10HIxG HC2018 06 13b*1,BeQ]4('n6B^@cVLUajbf;AX9VxUa/b]NmtbO0erRI8oYKu.g691
     P10HIxG  C2018 06 13.35754 17 25 30.59 +28 02 44.6          19.7 GUNEOCPI52
     P10HIxG  C2018 06 13.37374 17 25 30.20 +28 02 38.8          19.6 GUNEOCPI52
     P10HIxG  C2018 06 14.29574 17 25 13.36 +27 56 53.8          19.2 GUNEOCPI52
     P10HIxG  C2018 06 14.31235 17 25 13.02 +27 56 47.8          19.8 GUNEOCPI52
     P10HIxG  C2018 06 14.32480 17 25 12.72 +27 56 43.0          19.6 GUNEOCPI52
     P10HIxG KC2018 06 14aJbs=?qrZZZ=b'8$VnhAfAEXjXv;S+\o/EhL:DRNYok:aoq/^luY587
     P10HIxG KC2018 06 14k-IJ*?#iULxToJL/H$7[N(v5RmEj9tI+(LU2k2U!_SU.W(=Y,.;4587
     P10HIxG KC2018 06 14kkJw8IgQCj6%kkbXFcqyr%0Tvj;^_OOPyLh9sF]0%Uqb3=%NEOCP587

Station data:
(568) Mauna Kea  (N19.826116 W155.472200)  US/Hawaii.
(587) Sormano  (N45.882949 E9.229180)  Italy.  Observers F. Manca, A. Testa.
   Measurer F. Manca. 0.5-m + CCD.
(691) Steward Observatory, Kitt Peak - Spacewatch  (N31.962174 W111.600327)
   US/Arizona.  Observer J. V. Scotti. 0.9-m f/3 reflector + CCD.
(711) McDonald Observatory, Fort Davis  (N30.671481 W104.021500)  US/Texas.
   0.76-m f/3.0 reflector.
(F51) Pan-STARRS 1, Haleakala  (N20.707235 W156.255910)  US/Hawaii.
   Observers N. Primak, A. Schultz, S. Watters, J. Thiel, T. Goggia. Measurer
   PS1 Science Consortium. 1.8-m Ritchey-Chrétien + CCD.
(F52) Pan-STARRS 2, Haleakala  (N20.707384 W156.255910)  US/Hawaii.
(I52) Steward Observatory, Mt. Lemmon Station  (N32.442547 W110.788920)
   US/Arizona.  Observers B. M. Africano, E. J. Christensen, D. C. Fuls, A.
   R. Gibbs, A. D. Grauer, J. A. Johnson, R. A. Kowalski, S. M. Larson, G. J.
   Leonard, R. L. Seaman, F. C. Shelly. 1.0-m reflector + CCD.
(V06) Catalina Sky Survey-Kuiper  (N32.416847 W110.732550)  US/Arizona.
   Observers B. M. Africano, E. J. Christensen, D. C. Fuls, A. R. Gibbs, A.
   D. Grauer, J. A. Johnson, R. A. Kowalski, S. M. Larson, G. J. Leonard, R.
   L. Seaman, F. C. Shelly. 1.55-m reflector + CCD.

Orbital elements:  P10HIxG
   Perihelion 2018 Aug 1.136005 +/- 0.381 TT =  3:15:50 (JD 2458331.636005)
Epoch 2018 Jun 14.0 TT = JDT 2458283.5   Earth MOID: 0.7235   Ju: 0.0710
M 355.69477 +/- 0.019               (J2000 ecliptic)          AutoNEOCP
n   0.08943871 +/- 0.00111          Peri.  140.75743 +/- 0.36
a   4.95205762 +/- 0.0408           Node   145.07240 +/- 0.13
e   0.6619114 +/- 0.00299           Incl.   26.63610 +/- 0.035
P  11.02                   H 18.4   G  0.15   U  8.2  
q 1.67423376 +/- 0.00123    Q 8.22988147 +/- 0.0819
From 35 observations 2018 June 4-14; mean residual 0".36
Residuals in arcseconds: 
180604 F51  .30-  .21+    180611 I52  .22-  .37-    180613 691  .09+  .37+    
180605 F52  .56+  .29-    180611 I52  .86-  .34-    180613 691  .03-  .18+    
180605 F52  .12+  .11-    180611 V06  1.1-  .27+    180613 691  .11+  .41-    
180605 F52  .09-  .02+    180611 V06  .73+  .26+    180613 I52  .39+  .10+    
180608 F51  .13-  .06+    180611 V06  .10+  .02+    180613 I52  .05-  .16+    
180608 F51  .11+  .11+    180611 V06  .98+  .28-    180614 I52  .12-  .26-    
180608 F51  .39+  .05+    180611 711  .38+  .36+    180614 I52  .31+  .29+    
180608 F51  .19-  .17-    180611 711  .10+  .04+    180614 I52  .03+  .43+    
180610 568  .06-  .05+    180611 711  .57+  .01+    180614 587  .07-  .22-    
180610 568  .05-  .06+    180611 711  .01-  .21-    180614 587  .24-  .11-    
180610 568  .03-  .08+    180611 711  .31+  .47+    180614 587  .03+  .05-    
180611 I52  1.3-  .31-    180613 I52  .18+  .31-    

Ephemerides (geocentric):
Date (UTC) HH   RA              Dec         delta   r     elong  mag " sig PA
---- -- -- --  -------------   -----------  ------ ------ -----  --- ---- ---
2018 06 18 09  17 23 57.998   +27 23 58.19  .91093 1.7392 128.9 20.6  .46 126
2018 06 18 10  17 23 57.244   +27 23 34.17  .91078 1.7391 128.9 20.6  .47 126
2018 06 18 11  17 23 56.490   +27 23 10.07  .91064 1.7390 128.9 20.6  .47 126
2018 06 18 12  17 23 55.737   +27 22 45.90  .91049 1.7389 128.9 20.6  .47 125
2018 06 18 13  17 23 54.984   +27 22 21.64  .91035 1.7388 128.9 20.6  .48 125
2018 06 18 14  17 23 54.232   +27 21 57.31  .91020 1.7386 128.9 20.6  .48 125
2018 06 18 15  17 23 53.481   +27 21 32.90  .91006 1.7385 128.9 20.6  .49 125
2018 06 18 16  17 23 52.729   +27 21 08.41  .90991 1.7384 128.9 20.6  .49 125
2018 06 18 17  17 23 51.979   +27 20 43.84  .90977 1.7383 128.9 20.6  .50 125
2018 06 18 18  17 23 51.229   +27 20 19.20  .90962 1.7382 128.9 20.6  .50 124
2018 06 18 19  17 23 50.479   +27 19 54.48  .90948 1.7380 128.9 20.6  .51 124
2018 06 18 20  17 23 49.731   +27 19 29.68  .90934 1.7379 128.9 20.6  .51 124
2018 06 18 21  17 23 48.982   +27 19 04.80  .90919 1.7378 128.9 20.6  .52 124
2018 06 18 22  17 23 48.235   +27 18 39.84  .90905 1.7377 128.9 20.6  .52 124
2018 06 18 23  17 23 47.487   +27 18 14.81  .90890 1.7376 128.9 20.6  .53 124
2018 06 19 00  17 23 46.741   +27 17 49.69  .90876 1.7374 128.9 20.6  .53 123
2018 06 19 01  17 23 45.995   +27 17 24.50  .90862 1.7373 128.9 20.6  .54 123
2018 06 19 02  17 23 45.249   +27 16 59.24  .90847 1.7372 128.9 20.6  .54 123
2018 06 19 03  17 23 44.505   +27 16 33.89  .90833 1.7371 128.9 20.6  .55 123
2018 06 19 04  17 23 43.760   +27 16 08.46  .90819 1.7370 128.9 20.6  .55 123
2018 06 19 05  17 23 43.017   +27 15 42.96  .90805 1.7369 128.9 20.6  .56 123
2018 06 19 06  17 23 42.274   +27 15 17.38  .90790 1.7367 128.9 20.6  .56 122
2018 06 19 07  17 23 41.531   +27 14 51.72  .90776 1.7366 128.9 20.6  .57 122
2018 06 19 08  17 23 40.790   +27 14 25.98  .90762 1.7365 128.9 20.6  .57 122
2018 06 19 09  17 23 40.049   +27 14 00.17  .90748 1.7364 128.9 20.6  .58 122
2018 06 19 10  17 23 39.308   +27 13 34.28  .90734 1.7363 128.9 20.6  .58 122
2018 06 19 11  17 23 38.568   +27 13 08.30  .90720 1.7361 128.9 20.6  .59 121
2018 06 19 12  17 23 37.829   +27 12 42.26  .90705 1.7360 128.9 20.6  .59 121
2018 06 19 13  17 23 37.091   +27 12 16.13  .90691 1.7359 128.9 20.6  .60 121
2018 06 19 14  17 23 36.353   +27 11 49.92  .90677 1.7358 128.9 20.6  .60 121
2018 06 19 15  17 23 35.616   +27 11 23.64  .90663 1.7357 128.9 20.6  .61 121
2018 06 19 16  17 23 34.879   +27 10 57.28  .90649 1.7356 128.9 20.6  .61 121
2018 06 19 17  17 23 34.143   +27 10 30.84  .90635 1.7354 128.9 20.6  .62 120
2018 06 19 18  17 23 33.408   +27 10 04.32  .90621 1.7353 128.9 20.6  .62 120
2018 06 19 19  17 23 32.674   +27 09 37.72  .90607 1.7352 128.9 20.6  .63 120
2018 06 19 20  17 23 31.940   +27 09 11.05  .90593 1.7351 128.9 20.6  .63 120
2018 06 19 21  17 23 31.207   +27 08 44.29  .90579 1.7350 128.9 20.6  .64 120
2018 06 19 22  17 23 30.475   +27 08 17.46  .90565 1.7349 128.9 20.6  .65 120
2018 06 19 23  17 23 29.743   +27 07 50.55  .90551 1.7347 128.9 20.6  .65 119
2018 06 20 00  17 23 29.012   +27 07 23.56  .90537 1.7346 128.9 20.6  .66 119
2018 06 20 01  17 23 28.282   +27 06 56.50  .90524 1.7345 129.0 20.6  .66 119
2018 06 20 02  17 23 27.553   +27 06 29.35  .90510 1.7344 129.0 20.6  .67 119
2018 06 20 03  17 23 26.824   +27 06 02.13  .90496 1.7343 129.0 20.6  .67 119
2018 06 20 04  17 23 26.096   +27 05 34.83  .90482 1.7342 129.0 20.6  .68 118
2018 06 20 05  17 23 25.369   +27 05 07.45  .90468 1.7340 129.0 20.6  .68 118
2018 06 20 06  17 23 24.642   +27 04 40.00  .90454 1.7339 129.0 20.6  .69 118
2018 06 20 07  17 23 23.916   +27 04 12.46  .90441 1.7338 129.0 20.6  .69 118
2018 06 20 08  17 23 23.192   +27 03 44.85  .90427 1.7337 129.0 20.6  .70 118